Weather Roundup
Issued by NWS

Home | Current Version | Previous Version | Graphics & Text | Print | Product List | Glossary Off
Versions: 1 2 3 4 5 6 7 8 9 10 11 12 13 14 15 16 17 18 19 20 21 22 23 24 25 26 27 28 29 30 31 32 33 34 35 36 37 38 39 40 41 42 43 44 45 46 47 48 49 50

000
NZUS93 KARX 252059
HRRWXR

CURRENT HOURLY OBSERVATIONS ACROSS
MUCH OF THE UPPER MISSISSIPPI VALLEY
NATIONAL WEATHER SERVICE LA CROSSE WI
300 PM CST TUE NOV 25 2014


...SOUTHEAST MINNESOTA...


CITY           SKY/WX    TMP DP  RH WIND       PRES   REMARKS
ROCHESTER      CLOUDY    24  14  65 SW8       30.04S WCI  15
ROCHESTER/MAYO CLOUDY    26  10  50 W5        30.05R WCI  21
WINONA         MOSUNNY   27  16  63 SW3       30.08F
AUSTIN         PTSUNNY   25  12  58 S7        30.04R WCI  17
ALBERT LEA     CLOUDY    27  10  50 S6        30.01F WCI  20
DODGE CENTER   CLOUDY    25  16  68 SW6       30.03S WCI  18
PRESTON        SUNNY     22  12  65 CALM      30.05S
OWATONNA       MOSUNNY   25  16  68 S8        30.02F WCI  16
FARIBAULT      MOSUNNY   27  12  54 S7        30.03F WCI  19
$$

...ELSEWHERE IN MINNESOTA...


CITY           SKY/WX    TMP DP  RH WIND       PRES   REMARKS
MINNEAPOLIS    CLOUDY    22  12  65 SE3       30.04F
INTNL FALLS    MOCLDY    17   6  62 W7        29.94R WCI   8
DULUTH         MOSUNNY   20   8  60 W9        29.95R WCI   9
RED WING       CLOUDY    25  16  68 CALM      30.05S
REDWOOD FALLS  CLOUDY    32  17  54 S9        29.97F WCI  24
MANKATO        MOSUNNY   27   9  46 S9        30.01F WCI  17
WORTHINGTON    SUNNY     34  16  47 S13       29.94S WCI  25
FAIRMONT       CLOUDY    32   7  34 S12       29.99S WCI  23
$$

...SOUTHWEST WISCONSIN...


CITY           SKY/WX    TMP DP  RH WIND       PRES   REMARKS
LA CROSSE      SUNNY     26  14  60 E3        30.08F
PRAIRIE DU CHI SUNNY     24  13  62 W7        30.11S WCI  16
BOSCOBEL       SUNNY     26  14  60 W6        30.11R WCI  19
LONE ROCK      NOT AVBL
PLATTEVILLE    SUNNY     24  17  74 CALM      30.09R
FORT MC COY    SUNNY     24  14  68 W6        30.08S WCI  16
VIROQUA        FAIR      22  14  71 W7        30.05S WCI  14
WIS DELLS      CLOUDY    22  16  79 W8        30.06S WCI  12
$$

...ELSEWHERE IN WISCONSIN...


CITY           SKY/WX    TMP DP  RH WIND       PRES   REMARKS
MILWAUKEE      CLOUDY    25  17  72 W8        30.10R WCI  16
MADISON        CLOUDY    22  16  78 NW6       30.09R WCI  14
GREEN BAY      CLOUDY    24  16  71 W13       30.06R WCI  12
EAU CLAIRE     NOT AVBL
BLACK RVR FLS  FAIR      25  13  61 W5        30.07R WCI  19
MEDFORD        SUNNY     20  11  69 SW5       30.00R WCI  13
WAUSAU         MOSUNNY   17  11  77 W6        30.02R WCI   9
WIS RAPIDS     MOSUNNY   22  14  71 CALM      30.07R
MARSHFIELD     SUNNY     21  12  68 W6        30.03R WCI  13
RICE LAKE      CLOUDY    20  12  72 S5        30.04R WCI  13
$$

...NORTHEAST IOWA...


CITY           SKY/WX    TMP DP  RH WIND       PRES   REMARKS
DECORAH        SUNNY     21  12  68 VRB5      30.06F WCI  15
MASON CITY     PTSUNNY   28  12  51 S5        30.05F WCI  23
CHARLES CITY   MOSUNNY   23  14  68 SW6       30.08S WCI  16
OELWEIN        SUNNY     23  14  68 W7        30.10S WCI  15
$$

...ELSEWHERE IN IOWA...


CITY           SKY/WX    TMP DP  RH WIND       PRES   REMARKS
DES MOINES     MOSUNNY   37   6  27 VRB5      30.07F WCI  33
IOWA CITY      SUNNY     29  21  72 SW7       30.14S WCI  22
FORT DODGE     MOSUNNY   34  10  37 S9        30.03F WCI  26
$$

...NORTHERN ILLINOIS...


CITY           SKY/WX    TMP DP  RH WIND       PRES   REMARKS
CHICAGO-OHARE  MOSUNNY   25  16  68 W12       30.13R WCI  14
CHICAGO-MIDWAY PTSUNNY   26  18  71 W13       30.15R WCI  15
MOLINE         SUNNY     26  17  68 SW8       30.15R WCI  18
ROCKFORD       MOSUNNY   22  14  71 SW9       30.16R WCI  12
PEORIA         PTSUNNY   31  20  63 VRB6      30.15F WCI  25
$$

NOTE: "FAIR" INDICATES FEW OR NO CLOUDS BELOW 12,000 FEET WITH NO
SIGNIFICANT WEATHER AND/OR OBSTRUCTIONS TO VISIBILITY. WIND
SPEEDS ARE IN MILES-PER-HOUR.



USA.gov is the U.S. government's official web portal to all federal, state and local government web resources and services.